TimeCST,TemperatureF,Dew PointF,Humidity,Sea Level PressureIn,VisibilityMPH,Wind Direction,Wind SpeedMPH,Gust SpeedMPH,PrecipitationIn,Events,Conditions,WindDirDegrees,DateUTC
12:53 AM,17.1,9.0,71,30.42,10.0,North,9.2,-,N/A,,Clear,350,2013-01-21 06:53:00
1:53 AM,15.1,8.1,74,30.43,10.0,NNE,3.5,-,N/A,,Clear,20,2013-01-21 07:53:00
2:53 AM,15.1,8.1,74,30.44,10.0,WSW,4.6,-,0.01,,Clear,240,2013-01-21 08:53:00
3:53 AM,14.0,8.1,77,30.43,10.0,West,3.5,-,N/A,,Clear,280,2013-01-21 09:53:00
4:53 AM,14.0,8.1,77,30.41,10.0,WSW,3.5,-,N/A,,Partly Cloudy,240,2013-01-21 10:53:00
5:53 AM,12.0,7.0,80,30.43,10.0,NNW,5.8,-,N/A,,Partly Cloudy,340,2013-01-21 11:53:00
6:53 AM,12.0,7.0,80,30.44,10.0,NNW,5.8,-,N/A,,Partly Cloudy,330,2013-01-21 12:53:00
7:53 AM,14.0,9.0,80,30.44,10.0,West,3.5,-,N/A,,Mostly Cloudy,280,2013-01-21 13:53:00
8:53 AM,16.0,10.0,77,30.45,10.0,NNW,6.9,-,N/A,,Overcast,330,2013-01-21 14:53:00
9:53 AM,17.1,9.0,71,30.47,9.0,NNW,9.2,-,0.00,Snow,Light Snow,340,2013-01-21 15:53:00
10:53 AM,19.0,6.1,57,30.48,10.0,North,12.7,-,0.00,,Overcast,350,2013-01-21 16:53:00
11:53 AM,19.0,-0.9,42,30.47,10.0,North,9.2,-,N/A,,Overcast,350,2013-01-21 17:53:00
12:53 PM,18.0,-2.0,41,30.45,10.0,NNW,8.1,-,N/A,,Overcast,340,2013-01-21 18:53:00
1:53 PM,19.0,-4.0,36,30.44,10.0,NW,12.7,17.3,N/A,,Overcast,310,2013-01-21 19:53:00
2:53 PM,18.0,-2.0,41,30.44,10.0,NNW,9.2,-,N/A,,Overcast,330,2013-01-21 20:53:00
3:53 PM,18.0,-0.9,44,30.42,9.0,WNW,8.1,-,0.00,Snow,Light Snow,290,2013-01-21 21:53:00
4:16 PM,17.6,-0.4,45,30.37,9.0,WNW,10.4,-,0.00,,Overcast,290,2013-01-21 22:16:00
4:53 PM,17.1,-0.0,47,30.42,10.0,WNW,8.1,-,0.00,,Overcast,300,2013-01-21 22:53:00
5:53 PM,16.0,1.0,52,30.42,10.0,NNW,4.6,-,N/A,,Overcast,330,2013-01-21 23:53:00
6:53 PM,16.0,1.0,52,30.42,10.0,NW,5.8,-,N/A,,Overcast,310,2013-01-22 00:53:00
7:53 PM,16.0,1.9,54,30.42,10.0,North,8.1,-,N/A,,Overcast,350,2013-01-22 01:53:00
8:53 PM,16.0,1.9,54,30.42,10.0,North,5.8,-,N/A,,Overcast,360,2013-01-22 02:53:00
9:53 PM,16.0,3.0,57,30.43,10.0,North,4.6,-,N/A,,Overcast,10,2013-01-22 03:53:00
10:53 PM,16.0,3.0,57,30.43,10.0,North,4.6,-,N/A,,Overcast,10,2013-01-22 04:53:00
11:53 PM,15.1,3.0,59,30.42,10.0,NE,5.8,-,N/A,,Overcast,40,2013-01-22 05:53:00